�������l�o���
Date,Time,MP-1(��Sv/h),MP-2(��Sv/h),MP-3(��Sv/h),MP-4(��Sv/h),MP-5(��Sv/h),MP-6(��Sv/h),MP-7(��Sv/h),MP-8(��Sv/h),����,����(m/s),���J
2023/02/16,00:00,0.549,0.794,0.499,1.016,0.701,0.315,0.574,0.547,�k��,3.6,��
2023/02/16,00:10,0.547,0.795,0.500,1.013,0.702,0.315,0.573,0.547,�k��,3.5,��
2023/02/16,00:20,0.547,0.793,0.498,1.014,0.701,0.315,0.573,0.548,�k��,3.4,��
2023/02/16,00:30,0.546,0.794,0.498,1.016,0.701,0.316,0.572,0.546,�k��,4.0,��
2023/02/16,00:40,0.547,0.792,0.499,1.015,0.701,0.315,0.571,0.546,���k��,3.8,��
2023/02/16,00:50,0.548,0.793,0.499,1.015,0.702,0.315,0.572,0.547,���k��,4.9,��
2023/02/16,01:00,0.547,0.795,0.499,1.015,0.702,0.316,0.573,0.545,���k��,5.4,��
2023/02/16,01:10,0.546,0.794,0.500,1.015,0.701,0.315,0.572,0.546,���k��,6.1,��
2023/02/16,01:20,0.546,0.793,0.499,1.015,0.700,0.316,0.573,0.547,���k��,6.0,��
2023/02/16,01:30,0.547,0.792,0.499,1.014,0.701,0.316,0.573,0.546,���k��,7.6,��
2023/02/16,01:40,0.547,0.793,0.499,1.014,0.701,0.315,0.573,0.547,���k��,7.2,��
2023/02/16,01:50,0.547,0.794,0.498,1.015,0.701,0.316,0.574,0.547,���k��,6.4,��
2023/02/16,02:00,0.547,0.793,0.498,1.013,0.700,0.315,0.573,0.547,���k��,7.5,��
2023/02/16,02:10,0.547,0.793,0.497,1.015,0.701,0.316,0.574,0.546,�k��,7.5,��
2023/02/16,02:20,0.547,0.793,0.498,1.016,0.700,0.315,0.574,0.546,�k��,7.7,��
2023/02/16,02:30,0.547,0.794,0.498,1.015,0.700,0.315,0.573,0.546,�k��,8.0,��
2023/02/16,02:40,0.549,0.793,0.497,1.013,0.700,0.315,0.573,0.546,�k��,8.5,��
2023/02/16,02:50,0.546,0.792,0.498,1.013,0.699,0.314,0.573,0.545,�k��,9.2,��
2023/02/16,03:00,0.547,0.793,0.498,1.014,0.701,0.312,0.573,0.547,�k��,9.0,��
2023/02/16,03:10,0.546,0.791,0.497,1.013,0.699,0.313,0.572,0.547,�k��,8.2,��
2023/02/16,03:20,0.547,0.792,0.497,1.014,0.699,0.315,0.573,0.546,���k��,6.5,��
2023/02/16,03:30,0.545,0.792,0.497,1.014,0.698,0.315,0.573,0.547,�k��,6.2,��
2023/02/16,03:40,0.545,0.793,0.497,1.014,0.700,0.313,0.573,0.548,�k��,5.2,��
2023/02/16,03:50,0.547,0.790,0.498,1.012,0.699,0.315,0.571,0.547,�k��,3.2,��
2023/02/16,04:00,0.546,0.792,0.498,1.014,0.702,0.316,0.573,0.544,�k�k��,1.1,��
2023/02/16,04:10,0.546,0.791,0.499,1.014,0.701,0.315,0.573,0.548,-,CALM,��
2023/02/16,04:20,0.546,0.793,0.500,1.013,0.699,0.315,0.571,0.547,-,CALM,��
2023/02/16,04:30,0.546,0.793,0.500,1.015,0.701,0.316,0.572,0.548,�k�k��,1.8,��
2023/02/16,04:40,0.545,0.792,0.499,1.014,0.699,0.316,0.573,0.546,�k��,2.3,��
2023/02/16,04:50,0.546,0.793,0.497,1.015,0.700,0.315,0.573,0.546,���k��,2.0,��
2023/02/16,05:00,0.546,0.791,0.497,1.012,0.700,0.316,0.574,0.546,�k��,2.3,��
2023/02/16,05:10,0.544,0.790,0.499,1.012,0.699,0.316,0.572,0.547,�k��,3.6,��
2023/02/16,05:20,0.545,0.791,0.498,1.014,0.699,0.316,0.574,0.546,�k��,4.0,��
2023/02/16,05:30,0.545,0.791,0.498,1.012,0.700,0.315,0.573,0.546,�k��,3.2,��
2023/02/16,05:40,0.545,0.793,0.499,1.014,0.700,0.314,0.574,0.546,�k��,3.5,��
2023/02/16,05:50,0.545,0.790,0.498,1.013,0.700,0.315,0.573,0.546,�k��,3.2,��
2023/02/16,06:00,0.545,0.791,0.498,1.014,0.700,0.316,0.572,0.546,�k��,4.4,��
2023/02/16,06:10,0.545,0.791,0.499,1.014,0.699,0.315,0.572,0.547,�k��,6.7,��
2023/02/16,06:20,0.545,0.791,0.498,1.012,0.697,0.315,0.573,0.546,�k�k��,6.7,��
2023/02/16,06:30,0.544,0.788,0.500,1.014,0.698,0.314,0.573,0.547,�k��,5.9,��
2023/02/16,06:40,0.545,0.792,0.498,1.011,0.700,0.314,0.573,0.546,�k��,5.1,��
2023/02/16,06:50,0.545,0.789,0.498,1.014,0.698,0.315,0.572,0.545,�k��,5.1,��
2023/02/16,07:00,0.545,0.793,0.497,1.013,0.699,0.315,0.572,0.546,�k��,4.7,��
2023/02/16,07:10,0.548,0.792,0.499,1.014,0.698,0.315,0.572,0.546,�k��,5.6,��
2023/02/16,07:20,0.545,0.791,0.496,1.014,0.698,0.315,0.572,0.547,�k��,7.5,��
2023/02/16,07:30,0.546,0.792,0.498,1.012,0.699,0.315,0.573,0.546,�k��,5.4,��
2023/02/16,07:40,0.546,0.791,0.498,1.012,0.698,0.315,0.574,0.546,�k��,3.6,��
2023/02/16,07:50,0.546,0.790,0.498,1.014,0.699,0.315,0.572,0.547,�k��,3.1,��
2023/02/16,08:00,0.547,0.792,0.500,1.015,0.698,0.316,0.572,0.546,�k��,3.6,��
2023/02/16,08:10,0.546,0.791,0.499,1.015,0.696,0.315,0.573,0.546,�k��,2.9,��
2023/02/16,08:20,0.547,0.791,0.498,1.012,0.698,0.315,0.574,0.546,�k�k��,3.6,��
2023/02/16,08:30,0.548,0.790,0.500,1.012,0.698,0.315,0.574,0.546,�k�k��,3.9,��
2023/02/16,08:40,0.545,0.790,0.500,1.014,0.698,0.314,0.572,0.548,�k�k��,3.7,��
2023/02/16,08:50,0.547,0.792,0.500,1.012,0.697,0.315,0.575,0.547,�k��,5.7,��
2023/02/16,09:00,0.547,0.791,0.500,1.014,0.698,0.314,0.575,0.546,�k��,9.1,��
2023/02/16,09:10,0.548,0.790,0.500,1.013,0.701,0.315,0.573,0.547,�k�k��,7.5,��
2023/02/16,09:20,0.548,0.792,0.499,1.012,0.699,0.314,0.573,0.546,�k�k��,7.0,��
2023/02/16,09:30,0.548,0.790,0.501,1.014,0.701,0.314,0.573,0.546,�k��,6.9,��
2023/02/16,09:40,0.549,0.792,0.500,1.014,0.699,0.316,0.574,0.547,�k��,4.7,��
2023/02/16,09:50,0.548,0.792,0.499,1.015,0.701,0.315,0.572,0.548,�k��,4.8,��
2023/02/16,10:00,0.549,0.790,0.500,1.015,0.700,0.316,0.573,0.548,�k��,4.5,��
2023/02/16,10:10,0.550,0.793,0.501,1.014,0.700,0.316,0.574,0.547,���k��,6.3,��
2023/02/16,10:20,0.548,0.793,0.500,1.016,0.700,0.316,0.574,0.547,�k�k��,5.3,��
2023/02/16,10:30,0.550,0.794,0.501,1.016,0.701,0.315,0.574,0.549,�k�k��,5.3,��
2023/02/16,10:40,0.550,0.793,0.502,1.016,0.702,0.315,0.573,0.546,�k�k��,4.4,��
2023/02/16,10:50,0.550,0.793,0.501,1.016,0.702,0.316,0.572,0.547,�k��,3.5,��
2023/02/16,11:00,0.550,0.794,0.502,1.018,0.700,0.316,0.572,0.549,�k��,3.6,��
2023/02/16,11:10,0.549,0.792,0.501,1.016,0.702,0.315,0.573,0.547,�k�k��,3.6,��
2023/02/16,11:20,0.551,0.794,0.502,1.015,0.702,0.316,0.573,0.547,���k��,1.2,��
2023/02/16,11:30,0.551,0.795,0.501,1.016,0.703,0.316,0.571,0.549,���k��,2.6,��
2023/02/16,11:40,0.549,0.794,0.501,1.016,0.705,0.316,0.572,0.548,��,0.6,��
2023/02/16,11:50,0.552,0.794,0.502,1.016,0.704,0.317,0.571,0.548,���쐼,1.7,��
2023/02/16,12:00,0.550,0.797,0.502,1.016,0.706,0.316,0.570,0.548,��쐼,1.2,��
2023/02/16,12:10,0.552,0.795,0.501,1.018,0.706,0.317,0.572,0.546,���쓌,1.2,��
2023/02/16,12:20,0.552,0.795,0.502,1.016,0.700,0.316,0.573,0.548,���k��,2.0,��
2023/02/16,12:30,0.550,0.796,0.502,1.017,0.704,0.318,0.572,0.549,��,2.5,��
2023/02/16,12:40,0.552,0.796,0.503,1.016,0.704,0.316,0.572,0.547,��,2.0,��
2023/02/16,12:50,0.553,0.796,0.504,1.015,0.705,0.316,0.573,0.550,���k��,3.6,��
2023/02/16,13:00,0.552,0.794,0.502,1.018,0.705,0.316,0.573,0.550,�k��,5.0,��
2023/02/16,13:10,0.552,0.792,0.501,1.014,0.704,0.317,0.574,0.548,�k��,5.5,��
2023/02/16,13:20,0.551,0.795,0.503,1.015,0.703,0.316,0.572,0.548,�k��,6.0,��
2023/02/16,13:30,0.552,0.796,0.503,1.015,0.706,0.316,0.573,0.548,�k��,4.9,��
2023/02/16,13:40,0.552,0.796,0.502,1.017,0.704,0.318,0.573,0.547,���k��,4.7,��
2023/02/16,13:50,0.551,0.797,0.501,1.016,0.706,0.317,0.573,0.549,�k��,4.2,��
2023/02/16,14:00,0.550,0.798,0.502,1.015,0.708,0.317,0.573,0.550,���k��,4.1,��
2023/02/16,14:10,0.553,0.799,0.503,1.015,0.708,0.317,0.572,0.547,�k��,4.7,��
2023/02/16,14:20,0.554,0.797,0.501,1.017,0.707,0.316,0.572,0.548,�k��,4.5,��
2023/02/16,14:30,0.553,0.799,0.502,1.016,0.709,0.317,0.573,0.550,���k��,3.9,��
2023/02/16,14:40,0.554,0.798,0.503,1.016,0.707,0.317,0.573,0.549,�k��,4.5,��
2023/02/16,14:50,0.553,0.799,0.503,1.017,0.708,0.317,0.574,0.548,���k��,4.4,��
2023/02/16,15:00,0.552,0.800,0.504,1.016,0.707,0.318,0.574,0.548,��,3.4,��
2023/02/16,15:10,0.555,0.800,0.504,1.017,0.707,0.317,0.574,0.550,���k��,3.4,��
2023/02/16,15:20,0.551,0.799,0.502,1.017,0.705,0.317,0.575,0.548,���k��,3.3,��
2023/02/16,15:30,0.553,0.798,0.503,1.019,0.706,0.317,0.577,0.547,��,2.2,��
2023/02/16,15:40,0.552,0.797,0.503,1.017,0.705,0.317,0.576,0.549,�k��,1.2,��
2023/02/16,15:50,0.553,0.799,0.502,1.016,0.708,0.316,0.575,0.548,���쓌,1.8,��
2023/02/16,16:00,0.554,0.799,0.503,1.016,0.709,0.317,0.575,0.548,���쓌,1.4,��
2023/02/16,16:10,0.552,0.799,0.502,1.016,0.708,0.317,0.574,0.549,���쓌,2.9,��
2023/02/16,16:20,0.553,0.799,0.502,1.017,0.709,0.317,0.574,0.548,�쓌,2.3,��
2023/02/16,16:30,0.551,0.798,0.503,1.016,0.707,0.318,0.576,0.549,���쓌,2.5,��
2023/02/16,16:40,0.552,0.799,0.504,1.018,0.707,0.317,0.573,0.546,��쓌,2.0,��
2023/02/16,16:50,0.552,0.799,0.503,1.018,0.709,0.317,0.574,0.547,��쐼,1.5,��
2023/02/16,17:00,0.553,0.800,0.502,1.017,0.707,0.316,0.573,0.547,���쐼,3.1,��
2023/02/16,17:10,0.553,0.798,0.503,1.016,0.708,0.317,0.574,0.547,���쐼,4.0,��
2023/02/16,17:20,0.554,0.798,0.502,1.017,0.707,0.317,0.573,0.548,��,5.8,��
2023/02/16,17:30,0.552,0.798,0.502,1.017,0.707,0.317,0.574,0.550,��,7.2,��
2023/02/16,17:40,0.551,0.798,0.503,1.018,0.707,0.317,0.574,0.547,��,6.0,��
2023/02/16,17:50,0.550,0.797,0.502,1.015,0.707,0.316,0.574,0.547,��,6.2,��
2023/02/16,18:00,0.550,0.798,0.502,1.017,0.709,0.317,0.573,0.546,��,5.9,��
2023/02/16,18:10,0.551,0.799,0.502,1.020,0.707,0.316,0.575,0.547,��,6.1,��
2023/02/16,18:20,0.552,0.800,0.502,1.016,0.707,0.316,0.573,0.547,���k��,7.1,��
2023/02/16,18:30,0.553,0.797,0.502,1.015,0.707,0.315,0.575,0.548,��,5.8,��
2023/02/16,18:40,0.550,0.798,0.502,1.017,0.705,0.316,0.574,0.548,��,6.5,��
2023/02/16,18:50,0.550,0.799,0.502,1.018,0.709,0.316,0.575,0.547,��,6.1,��
2023/02/16,19:00,0.551,0.798,0.502,1.017,0.706,0.316,0.574,0.548,��,6.0,��
2023/02/16,19:10,0.552,0.799,0.502,1.018,0.706,0.316,0.575,0.546,���k��,6.8,��
2023/02/16,19:20,0.552,0.797,0.502,1.017,0.705,0.316,0.574,0.545,��,6.9,��
2023/02/16,19:30,0.550,0.799,0.502,1.017,0.708,0.317,0.574,0.546,���k��,6.3,��
2023/02/16,19:40,0.550,0.797,0.501,1.016,0.707,0.316,0.576,0.548,���k��,5.3,��
2023/02/16,19:50,0.549,0.799,0.502,1.018,0.705,0.317,0.573,0.546,�k��,4.1,��
2023/02/16,20:00,0.551,0.798,0.501,1.018,0.707,0.316,0.574,0.547,�k�k��,3.7,��
2023/02/16,20:10,0.550,0.798,0.501,1.018,0.706,0.316,0.572,0.547,�k�k��,2.3,��
2023/02/16,20:20,0.551,0.799,0.502,1.017,0.706,0.316,0.574,0.548,���k��,1.5,��
2023/02/16,20:30,0.549,0.798,0.501,1.017,0.707,0.316,0.574,0.547,�k��,4.1,��
2023/02/16,20:40,0.550,0.799,0.503,1.018,0.707,0.317,0.574,0.547,���k��,5.7,��
2023/02/16,20:50,0.551,0.799,0.502,1.016,0.705,0.317,0.575,0.545,�k��,5.4,��
2023/02/16,21:00,0.550,0.799,0.502,1.016,0.707,0.316,0.572,0.547,�k��,5.4,��
2023/02/16,21:10,0.549,0.797,0.503,1.015,0.706,0.316,0.573,0.548,�k��,4.0,��
2023/02/16,21:20,0.549,0.800,0.502,1.017,0.707,0.316,0.574,0.548,�k��,2.3,��
2023/02/16,21:30,0.551,0.796,0.502,1.016,0.705,0.316,0.574,0.548,�k��,3.0,��
2023/02/16,21:40,0.550,0.799,0.502,1.020,0.707,0.316,0.574,0.549,�k��,4.2,��
2023/02/16,21:50,0.549,0.798,0.501,1.017,0.708,0.316,0.573,0.547,�k��,2.6,��
2023/02/16,22:00,0.551,0.797,0.501,1.015,0.708,0.316,0.574,0.547,�k��,1.8,��
2023/02/16,22:10,0.549,0.796,0.501,1.014,0.706,0.316,0.572,0.547,�k��,2.8,��
2023/02/16,22:20,0.550,0.797,0.500,1.017,0.705,0.315,0.572,0.546,�k��,4.4,��
2023/02/16,22:30,0.549,0.798,0.499,1.016,0.706,0.316,0.572,0.546,�k��,5.2,��
2023/02/16,22:40,0.550,0.796,0.502,1.017,0.707,0.317,0.573,0.546,�k��,5.1,��
2023/02/16,22:50,0.549,0.795,0.501,1.015,0.708,0.314,0.573,0.546,�k��,4.9,��
2023/02/16,23:00,0.550,0.795,0.500,1.019,0.704,0.316,0.574,0.547,�k��,5.7,��
2023/02/16,23:10,0.548,0.797,0.501,1.019,0.705,0.317,0.572,0.548,�k��,4.7,��
2023/02/16,23:20,0.549,0.799,0.500,1.015,0.706,0.315,0.571,0.547,�k��,3.9,��
2023/02/16,23:30,0.550,0.797,0.501,1.015,0.705,0.316,0.572,0.548,���k��,3.2,��
2023/02/16,23:40,0.550,0.797,0.500,1.018,0.706,0.316,0.572,0.547,���k��,3.5,��
2023/02/16,23:50,0.548,0.797,0.502,1.017,0.705,0.315,0.574,0.546,���k��,3.1,��
